Regional Weather Roundup
Issued by NWS

Home | Current Version | Previous Version | Text Only | Print | Product List | Glossary On
Versions: 1 2 3 4 5 6 7 8 9 10 11 12 13 14 15 16 17 18 19 20 21 22 23 24 25 26 27 28 29 30 31 32 33 34 35 36 37 38 39 40 41 42 43 44 45 46 47 48 49 50
000
ASUS43 KIND 240209
RWRIN

WEATHER ROUNDUP FOR INDIANA
NATIONAL WEATHER SERVICE INDIANAPOLIS IN
1000 PM EDT SUN JUL 23 2017

NOTE: "FAIR" INDICATES FEW OR NO CLOUDS BELOW 12,000 FEET WITH NO
SIGNIFICANT WEATHER AND/OR OBSTRUCTIONS TO VISIBILITY.

* - STATION DOES NOT REPORT WEATHER SUCH AS PRECIPITATION OR FOG.

+ - STATION NOT QUALITY CONTROLLED BY THE NATIONAL WEATHER SERVICE.
    USE DATA WITH CAUTION...ESPECIALLY DEWPOINT AND RELATIVE
    HUMIDITY OBSERVATIONS.

INZ001>003-010>013-019-020-240300-
NORTHWEST INDIANA

CITY           SKY/WX    TMP DP  RH WIND       PRES   REMARKS
GARY /AIRPORT/ PTCLDY    75  66  73 N3        29.82S
KNOX *+        CLOUDY    66  64  94 CALM      29.81R
LA PORTE +     CLEAR     71  67  86 N6        29.82S
MICHIGAN CITY+ CLEAR     70  70 100 CALM      29.82R
MONTICELLO +   CLOUDY    78  69  73 NW14      29.79R
RENSSELAER +   PTCLDY    72  64  78 CALM      29.81S
VALPARAISO     CLEAR     73  68  84 N5        29.83R

$$

LMZ046-743>745-240300-
SOUTHERN LAKE MICHIGAN

STATION/POSITION TIME  TEMP    WIND        PRES    WAVE
                       AIR SEA DIR/SP/G            HT
                 (UTC) (F)     (DEG/KT/KT) (MB)    (FT)
BURNS HARBOR     0140   76     340/  7/  9 1010.2S
MICHIGAN CITY    0140   74      10/ 11/ 11   N/A
5NW MICH CITY    0200   75 75   10/  8/ 10   N/A     1

$$

INZ004-005-014>016-021>024-240300-
NORTH CENTRAL INDIANA

CITY           SKY/WX    TMP DP  RH WIND       PRES   REMARKS
GOSHEN         CLOUDY    77  57  50 N12       29.81R
LOGANSPORT +   CLOUDY    72  63  73 NW3       29.81R HAZE
PERU/GRISSOM   MOCLDY    74  59  60 CALM      29.79R
ROCHESTER +    PTCLDY    70  64  83 CALM      29.81R
SOUTH BEND     PTCLDY    72  65  78 N5        29.82S
WARSAW +       CLOUDY    72  66  83 NW3       29.81S

$$

INZ006>009-017-018-025>027-240300-
NORTHEAST INDIANA

CITY           SKY/WX    TMP DP  RH WIND       PRES   REMARKS
AUBURN +       CLOUDY    72  68  88 CALM      29.80R
FORT WAYNE     PTCLDY    75  70  84 NE5       29.77F
HUNTINGTON +   PTCLDY    74  70  88 NW10G16   29.78F
KENDALLVILLE + CLOUDY    75  66  73 NW3       29.80S

$$

INZ028-029-035-036-043>045-051>053-240300-
WEST CENTRAL INDIANA

CITY           SKY/WX    TMP DP  RH WIND       PRES   REMARKS
GREENCASTLE +  CLEAR     70  68  94 CALM      29.83F
LAFAYETTE      CLOUDY    77  69  76 NW16G26   29.79F
TERRE HAUTE    CLEAR     76  71  85 CALM      29.83R

$$

INZ030>032-037>040-046>048-054>057-064-065-240300-
CENTRAL INDIANA

CITY           SKY/WX    TMP DP  RH WIND       PRES   REMARKS
CP ATTERBURY + CLEAR     72  68  88 SW3       29.85R
COLUMBUS       PTCLDY   N/A N/A N/A W5        29.84R
FRANKFORT +    CLOUDY    77  73  86 SW3       29.79F
GREENWOOD *+   CLEAR    N/A N/A N/A CALM      29.84R
INDIANAPOLIS   PTCLDY    75  72  90 SW6       29.83R
-EAGLE CREEK   CLEAR     76  69  79 SW5       29.82S
KOKOMO +         N/A     75  72  88 MISG        N/A
MARION +       PTCLDY    72  70  94 W5        29.79F
MT COMFORT *+  CLEAR     72  70  94 CALM      29.83S
SHELBYVILLE    CLEAR     74  69  85 S6        29.84R
ZIONSVILLE +   CLEAR     71  69  95 SE7       29.80F

$$

INZ033-034-041-042-049-050-058-059-240300-
EAST CENTRAL INDIANA

CITY           SKY/WX    TMP DP  RH WIND       PRES   REMARKS
MUNCIE         CLEAR     74  67  78 SW5       29.81F
RICHMOND +     CLEAR     68  64  88 W5        29.86R

$$

INZ060-061-067>069-081>083-085>088-240300-
SOUTHWEST INDIANA

CITY           SKY/WX    TMP DP  RH WIND       PRES   REMARKS
EVANSVILLE     CLEAR     79  71  76 W3        29.86R
HUNTINGBURG *+ CLEAR     76  73  91 SE5       29.87R

$$

INZ062-063-066-070>080-084-089>092-240300-
SOUTH CENTRAL AND SOUTHEAST INDIANA

CITY           SKY/WX    TMP DP  RH WIND       PRES   REMARKS
BEDFORD +        N/A     68  64  88 CALM      29.86F
BLOOMINGTON    CLEAR     71  68  90 CALM      29.86R
MADISON *+     CLEAR     72  70  94 CALM      29.88R
NORTH VERNON + MOCLDY    70  70 100 SW5       29.86R
SEYMOUR +      MOCLDY   N/A N/A N/A CALM      29.85R

$$




USA.gov is the U.S. government's official web portal to all federal, state and local government web resources and services.